STARLINK-36837

Last updated on Mon Mar 23 2026 00:02:07 GMT+0000 (Coordinated Universal Time)

1 67858U 26034J 26081.16668981 -.01924789 00000+0 -17453-1 0 9993 2 67858 53.1595 148.8536 0001187 90.5617 146.8712 15.70343302 5860
UTC large
Height (km)
Speed (km/s)
/
Latitude / Longitude
Inclination (degrees)
Orbital Period (minutes)
Azimuth
Elevation
Range (km)
Doppler Factor

Next 0 passes for location: London (51.5072 / 0.1276)

Sorry there are no passes over London.